Weather History for Crestview, FL

Change the Weather History Date:

Thursday, January 10, 2013

  Actual Average Record
Temperature  
Mean Temperature 68 °F -  
Max Temperature 72 °F - - ()
Min Temperature 63 °F - - ()
Cooling Degree Days 2    
Growing Degree Days 18 (Base 50)    
Moisture  
Dew Point 66 °F    
Average Humidity 93    
Maximum Humidity 100    
Minimum Humidity 80    
Precipitation  
Precipitation 0.06 in - - ()
Sea Level Pressure  
Sea Level Pressure 30.24 in    
Wind  
Wind Speed 8 mph (SE)    
Max Wind Speed 15 mph    
Max Gust Speed 28 mph    
Visibility 8 miles    
Events Rain    
T = Trace of Precipitation, MM = Missing Value Source: NWS Daily Summary

Daily Weather History Graph

Daily Weather History Graph

Search for Another Location

Airport:

Trip Planner

Search our weather history database for the weather conditions in past years. The results will help you decide how hot, cold, wet, or windy it might be!

Date:

Astronomy

Jan. 10, 2013 Rise Set
Actual Time 6:44 AM CST 5:03 PM CST
Civil Twilight 6:18 AM CST 5:29 PM CST
Nautical Twilight 5:48 AM CST 5:59 PM CST
Astronomical Twilight 5:19 AM CST 6:28 PM CST
Moon 5:24 AM CST (1/10) 4:09 PM CST (1/10)
Length of Visible Light 11h 11m
Length of Day
10h 18m
Waning Crescent, 2% of the Moon is Illuminated
Jan 10
Waning Crescent
Jan 11
New
Jan 18
First Quarter
Jan 26
Full
Feb 3
Last Quarter

Hourly Weather History & Observations

Time (CST) Temp. Dew Point Humidity Pressure Visibility Wind Dir Wind Speed Gust Speed Precip Events Conditions
12:18 AM 66.2 °F 64.4 °F 94% 30.28 in 10.0 mi East 6.9 mph - N/A   Scattered Clouds
12:39 AM 66.2 °F 64.4 °F 94% 30.29 in 10.0 mi East 8.1 mph - N/A   Mostly Cloudy
12:55 AM 67.3 °F 65.1 °F 93% 30.29 in 10.0 mi East 6.9 mph - N/A   Mostly Cloudy
1:50 AM 68.0 °F 66.2 °F 94% 30.27 in 10.0 mi East 8.1 mph - N/A   Mostly Cloudy
1:55 AM 67.3 °F 65.7 °F 95% 30.27 in 10.0 mi East 6.9 mph - N/A   Mostly Cloudy
2:41 AM 66.2 °F 66.2 °F 100% 30.27 in 10.0 mi East 5.8 mph - N/A   Mostly Cloudy
2:50 AM 68.0 °F 66.2 °F 94% 30.27 in 10.0 mi East 6.9 mph - N/A   Mostly Cloudy
2:55 AM 67.3 °F 66.4 °F 97% 30.27 in 10.0 mi East 6.9 mph - N/A   Mostly Cloudy
3:44 AM 68.0 °F 66.2 °F 94% 30.25 in 10.0 mi ESE 9.2 mph - N/A   Overcast
3:55 AM 68.2 °F 67.1 °F 96% 30.25 in 10.0 mi ESE 6.9 mph - N/A   Overcast
4:20 AM 68.0 °F 68.0 °F 100% 30.24 in 10.0 mi East 6.9 mph - N/A   Drizzle
4:24 AM 68.0 °F 68.0 °F 100% 30.24 in 9.0 mi East 5.8 mph - N/A Rain Light Rain
4:28 AM 68.0 °F 68.0 °F 100% 30.25 in 8.0 mi East 4.6 mph - N/A Rain Light Rain
4:35 AM 68.0 °F 68.0 °F 100% 30.24 in 7.0 mi East 5.8 mph - N/A Rain Light Rain
4:46 AM 68.0 °F 68.0 °F 100% 30.24 in 9.0 mi East 4.6 mph - N/A   Light Drizzle
4:48 AM 68.0 °F 68.0 °F 100% 30.24 in 10.0 mi East 4.6 mph - N/A   Overcast
4:55 AM 67.8 °F 67.5 °F 99% 30.24 in 10.0 mi East 4.6 mph - 0.00 in   Overcast
5:20 AM 68.0 °F 68.0 °F 100% 30.24 in 10.0 mi East 5.8 mph - N/A   Overcast
5:43 AM 68.0 °F 68.0 °F 100% 30.23 in 10.0 mi East 6.9 mph - N/A   Overcast
5:55 AM 68.4 °F 68.0 °F 99% 30.23 in 10.0 mi ESE 8.1 mph - N/A   Overcast
5:57 AM 68.0 °F 68.0 °F 100% 30.23 in 10.0 mi ESE 6.9 mph - N/A   Overcast
6:03 AM 68.0 °F 68.0 °F 100% 30.23 in 10.0 mi ESE 8.1 mph - N/A   Overcast
6:17 AM 68.0 °F 68.0 °F 100% 30.23 in 10.0 mi ESE 10.4 mph - N/A   Overcast
6:23 AM 69.8 °F 68.0 °F 94% 30.23 in 10.0 mi ESE 8.1 mph - N/A   Overcast
6:55 AM 69.1 °F 67.6 °F 95% 30.23 in 10.0 mi ESE 6.9 mph - N/A   Overcast
7:55 AM 69.6 °F 67.3 °F 92% 30.25 in 3.0 mi SE 10.4 mph - N/A   Overcast
8:55 AM 70.2 °F 66.6 °F 88% 30.27 in 5.0 mi SE 10.4 mph 17.3 mph N/A   Overcast
9:55 AM 71.1 °F 66.0 °F 84% 30.28 in 5.0 mi SE 12.7 mph - N/A   Overcast
10:36 AM 71.6 °F 66.2 °F 83% 30.26 in 6.0 mi SE 13.8 mph - N/A   Overcast
10:55 AM 72.7 °F 66.4 °F 81% 30.27 in 6.0 mi SSE 13.8 mph 23.0 mph N/A   Overcast
11:11 AM 71.6 °F 66.2 °F 83% 30.25 in 6.0 mi SSE 15.0 mph 24.2 mph N/A   Overcast
11:27 AM 71.6 °F 66.2 °F 83% 30.24 in 6.0 mi SSE 12.7 mph 27.6 mph N/A   Overcast
11:55 AM 69.4 °F 66.0 °F 89% 30.25 in 2.5 mi SE 11.5 mph 21.9 mph N/A   Overcast
12:55 PM 70.9 °F 66.2 °F 85% 30.22 in 5.0 mi SE 11.5 mph - N/A   Overcast
1:29 PM 71.6 °F 66.2 °F 83% 30.21 in 6.0 mi SSE 10.4 mph 21.9 mph N/A   Mostly Cloudy
1:55 PM 72.0 °F 65.7 °F 80% 30.21 in 7.0 mi SE 9.2 mph - N/A   Mostly Cloudy
2:55 PM 69.8 °F 65.5 °F 86% 30.21 in 5.0 mi SE 10.4 mph - N/A   Overcast
3:25 PM 69.8 °F 66.2 °F 88% 30.21 in 5.0 mi SSE 9.2 mph - N/A   Overcast
3:55 PM 68.7 °F 65.3 °F 89% 30.22 in 10.0 mi SSE 8.1 mph - N/A   Overcast
4:30 PM 68.0 °F 64.4 °F 88% 30.21 in 10.0 mi SSE 9.2 mph - N/A   Mostly Cloudy
4:55 PM 68.4 °F 64.8 °F 88% 30.23 in 10.0 mi SSE 9.2 mph - N/A   Mostly Cloudy
5:55 PM 68.4 °F 64.6 °F 88% 30.20 in 10.0 mi SE 11.5 mph - N/A   Mostly Cloudy
6:55 PM 68.5 °F 63.5 °F 84% 30.21 in 10.0 mi South 12.7 mph - N/A   Mostly Cloudy
6:59 PM 68.0 °F 64.4 °F 88% 30.21 in 3.0 mi South 12.7 mph - N/A Rain Light Rain
7:32 PM 66.2 °F 64.4 °F 94% 30.21 in 3.0 mi SW 4.6 mph - N/A Rain Light Rain
7:49 PM 66.2 °F 64.4 °F 94% 30.21 in 3.0 mi SSE 11.5 mph - N/A   Overcast
7:55 PM 66.2 °F 64.8 °F 95% 30.22 in 7.0 mi SSE 10.4 mph - 0.04 in   Overcast
8:31 PM 66.2 °F 64.4 °F 94% 30.21 in 10.0 mi South 13.8 mph - N/A Rain Light Rain
8:55 PM 65.8 °F 65.5 °F 99% 30.22 in 6.0 mi SSE 13.8 mph - 0.01 in   Light Drizzle
9:19 PM 64.4 °F 64.4 °F 100% 30.20 in 6.0 mi SSE 13.8 mph - N/A Rain Light Rain
9:55 PM 64.0 °F 62.6 °F 95% 30.22 in 6.0 mi South 13.8 mph - 0.00 in Rain Light Rain
10:55 PM 63.5 °F 62.4 °F 96% 30.17 in 10.0 mi ESE 10.4 mph - 0.01 in   Overcast
11:55 PM 65.5 °F 62.2 °F 89% 30.17 in 10.0 mi SSE 6.9 mph - N/A   Mostly Cloudy